This is the latest recevied weather packets stored in our database for station/object KB1FFS. If no packets are shown the sender has not sent any weather packets the latest 10 day(s).
| Time | Temp. | Humidity | Pressure | Rain* | Wind** | Luminosity | Snow |
|---|---|---|---|---|---|---|---|
| 1787599173 | 43.33° C | 24% | 1014 hPa | 0 mm | - | 1044 W/m² | - |
| 1787598868 | 43.33° C | 24% | 1014.1 hPa | 0 mm | - | 1044 W/m² | - |
| 1787598564 | 43.33° C | 24% | 1014.1 hPa | 0 mm | - | 1044 W/m² | - |
| 1787598258 | 43.33° C | 26% | 1014 hPa | 0 mm | - | 1012 W/m² | - |
| 1787597953 | 43.33° C | 25% | 1014.1 hPa | 0 mm | - | 995 W/m² | - |
| 1787597648 | 42.78° C | 25% | 1013.9 hPa | 0 mm | - | 937 W/m² | - |
| 1787597348 | 42.78° C | 26% | 1014.1 hPa | 0 mm | - | 968 W/m² | - |
| 1787597043 | 42.78° C | 27% | 1014.1 hPa | 0 mm | - | 880 W/m² | - |
| 1787596739 | 42.22° C | 26% | 1014.1 hPa | 0 mm | - | 897 W/m² | - |
| 1787596434 | 41.67° C | 27% | 1014.4 hPa | 0 mm | - | 820 W/m² | - |
| 1787596129 | 41.11° C | 28% | 1014.5 hPa | 0 mm | - | 882 W/m² | - |
| 1787595826 | 40.56° C | 29% | 1014.4 hPa | 0 mm | - | 720 W/m² | - |
| 1787595521 | 40.56° C | 28% | 1014.6 hPa | 0 mm | - | 316 W/m² | - |
| 1787595216 | 40.56° C | 28% | 1014.5 hPa | 0 mm | - | 316 W/m² | - |
| 1787594915 | 40.56° C | 28% | 1014.6 hPa | 0 mm | - | 479 W/m² | - |
| 1787594610 | 40.56° C | 28% | 1014.4 hPa | 0 mm | - | 479 W/m² | - |
| 1787594309 | 40.56° C | 28% | 1014.6 hPa | 0 mm | - | 479 W/m² | - |
| 1787594004 | 40.56° C | 27% | 1014.8 hPa | 0 mm | - | 299 W/m² | - |
| 1787593704 | 41.11° C | 27% | 1014.9 hPa | 0 mm | - | 820 W/m² | - |
| 1787593399 | 41.11° C | 28% | 1014.9 hPa | 0 mm | - | 760 W/m² | - |
| 1787593094 | 40.56° C | 28% | 1014.7 hPa | 0 mm | - | 727 W/m² | - |
| 1787592789 | 40.56° C | 27% | 1015.2 hPa | 0 mm | - | 740 W/m² | - |
| 1787592489 | 40.56° C | 29% | 1015 hPa | 0 mm | - | 731 W/m² | - |
| 1787592184 | 40.56° C | 29% | 1015 hPa | 0 mm | - | 730 W/m² | - |
| 1787591880 | 40° C | 28% | 1015.2 hPa | 0 mm | - | 722 W/m² | - |
* Rain latest hour (hover to see other rain measurements)
** Current wind speed in m/s (hover to see current wind gust speed)